{"data":{"norad_id":41885,"epoch":"2026-09-20T04:16:57.616032Z","epoch_age_seconds":42078,"freshness":"FRESH","line1":"1 41885U 16078B   26263.17844463  .00029212  00000+0  26346-3 0  9993","line2":"2 41885  34.9318 311.8982 0003142  43.0571 317.0401 15.67101457543889","mean_motion":15.67101457,"eccentricity":0.0003142,"inclination_deg":34.9318,"raan_deg":311.8982,"arg_perigee_deg":43.0571,"mean_anomaly_deg":317.0401,"bstar":0.00026346,"rev_number":54388,"period_min":91.889391945093,"perigee_km":365.08236913903,"apogee_km":369.3211400124,"semimajor_km":6745.3387545757,"source":"CELESTRAK","updated_at":"2026-09-20T09:00:33.218250Z"}}